sat.trackr.live / text

‹ back to catalog

STARLINK-31748

NORAD 59612 · 2024-080M

PAYLOAD ACTIVE UNKNOWN

§ Identity

Operator
Country
US
Launch date
2024-04-28
Launch site
AFETR
Launch vehicle
Mass (kg)
RCS (m²)

Purposes: comms

External: N2YO · Heavens-Above · Gunter

§ Orbital elements

Epoch: 2026-05-25T04:21:45.317664Z

Period
94.27 min
Inclination
43.0016°
Eccentricity
0.0001101
Mean motion
15.27592634 rev/d
Perigee alt
482.3 km
Apogee alt
483.8 km
Semi-major
6,861.1 km
B*
9.1892e-5
RAAN
322.2475°
Arg perigee
272.1303°
Mean anomaly
87.9422°
Rev number
11,744

§ Raw data

STARLINK-317481 59612U 24080M   26145.18177451  .00002268  00000+0  91892-4 0  99992 59612  43.0016 322.2475 0001101 272.1303  87.9422 15.27592634117448

JSON: /api/v1/satellites/59612 · /tle

For live sub-satellite position, see the globe view (requires WebGL).

§ Visibility from observer

Set your observer location to see the next 7 days of passes ≥ 10°. The values pass through the URL so the page stays shareable.

No JS? Fill the form by hand. The geolocation button needs JavaScript.